GW7014 Weather Reports


Display with metric or nautical units.
time (UTC)temp
F
wind
direction
speed
MPH
gust
MPH
rain 1hr
in
rain 24hr
in
rain mn
in
humidity
%
barometer
mb
20260507060016 57 37 0.0 2.0 0.00 0.08 0.00 62 1006.1
20260507054520 57 131 0.0 5.0 0.00 0.08 0.00 62 1006.2
20260507053028 57 300 0.0 4.0 0.00 0.08 0.00 61 1006.5
20260507051528 58 249 0.0 0.0 0.00 0.08 0.00 55 1006.3
20260507050031 58 257 0.0 5.0 0.00 0.08 0.00 55 1006.1
20260507044517 59 53 1.0 5.0 0.00 0.08 0.00 26 1006.3
20260507043010 59 244 0.0 0.0 0.00 0.08 0.00 8 1006.1
20260507041504 59 290 0.0 3.0 0.00 0.08 0.00 100 1006.1
20260507040008 60 234 0.0 0.0 0.00 0.08 0.00 100 1006.4
20260507034522 60 196 0.0 2.0 0.00 0.08 0.08 100 1006.4
20260507033020 60 248 2.0 10.0 0.00 0.08 0.08 100 1006.0
20260507031505 60 217 1.0 7.0 0.00 0.08 0.08 1 1006.0
20260507030007 60 239 2.0 11.0 0.00 0.08 0.08 2 1005.8
20260507024514 60 203 3.0 7.0 0.00 0.08 0.08 100 1005.6
20260507023018 59 217 1.0 10.0 0.00 0.08 0.08 100 1006.1
20260507021523 59 219 1.0 13.0 0.00 0.08 0.08 100 1005.9
20260507020006 59 225 4.0 10.0 0.00 0.08 0.08 100 1005.9
20260507014506 59 210 5.0 12.0 0.00 0.08 0.08 100 1005.9
20260507013013 59 217 4.0 12.0 0.00 0.08 0.08 100 1006.1
20260507011532 59 200 3.0 12.0 0.00 0.08 0.08 100 1006.2
20260507010024 59 213 4.0 11.0 0.00 0.08 0.08 100 1006.4
20260507004506 59 232 3.0 10.0 0.00 0.08 0.08 100 1006.4
20260507003008 58 252 4.0 11.0 0.01 0.08 0.08 100 1006.3
20260507001538 59 243 1.0 12.0 0.02 0.08 0.08 100 1006.1
20260507000023 59 229 3.0 13.0 0.03 0.08 0.08 1 1005.8
20260506234524 59 229 3.0 11.0 0.03 0.08 0.08 3 1005.9
20260506233009 59 243 2.0 10.0 0.02 0.07 0.07 6 1005.8
20260506231511 60 196 4.0 15.0 0.01 0.06 0.06 12 1005.9
20260506230017 60 250 1.0 10.0 0.00 0.05 0.05 16 1005.8
20260506224522 60 246 3.0 8.0 0.00 0.05 0.05 13 1005.9
20260506223031 60 226 4.0 12.0 0.01 0.05 0.05 11 1006.0
20260506221508 60 224 1.0 11.0 0.01 0.05 0.05 11 1006.3
20260506220012 60 162 2.0 9.0 0.01 0.05 0.05 15 1006.4
20260506214517 61 192 2.0 13.0 0.01 0.05 0.05 27 1006.5
20260506213020 61 198 3.0 13.0 0.00 0.04 0.04 43 1006.8
20260506211526 62 203 7.0 14.0 0.01 0.04 0.04 48 1006.7
20260506210009 62 168 5.0 11.0 0.01 0.04 0.04 50 1006.8
20260506204514 61 109 5.0 16.0 0.02 0.04 0.04 49 1006.8
20260506203022 62 172 4.0 15.0 0.02 0.04 0.04 58 1007.0
20260506201526 62 231 2.0 11.0 0.02 0.03 0.03 58 1006.8
20260506200032 63 185 4.0 10.0 0.03 0.03 0.03 65 1006.7
20260506194516 64 155 4.0 9.0 0.02 0.02 0.02 70 1006.8
20260506193029 65 194 4.0 11.0 0.02 0.02 0.02 72 1007.0
20260506191521 67 228 2.0 7.0 0.01 0.01 0.01 72 1007.0
20260506190031 68 212 4.0 9.0 0.00 0.00 0.00 67 1006.9
20260506184537 69 212 4.0 9.0 0.00 0.00 0.00 65 1006.9
20260506183015 70 161 4.0 17.0 0.00 0.00 0.00 61 1007.1
20260506181525 71 210 5.0 17.0 0.00 0.00 0.00 58 1007.2
20260506180025 72 260 5.0 25.0 0.00 0.00 0.00 55 1007.3
20260506174527 73 172 3.0 16.0 0.00 0.00 0.00 55 1007.4
20260506173028 73 147 4.0 20.0 0.00 0.00 0.00 57 1007.4
20260506171518 72 203 8.0 16.0 0.00 0.00 0.00 57 1007.6
20260506170028 72 116 3.0 18.0 0.00 0.00 0.00 59 1007.6
20260506164542 72 219 5.0 16.0 0.00 0.00 0.00 58 1007.8
20260506163028 72 179 8.0 20.0 0.00 0.00 0.00 58 1007.9
20260506161530 72 198 5.0 11.0 0.00 0.00 0.00 59 1008.2
20260506160020 72 200 4.0 15.0 0.00 0.00 0.00 58 1008.5
20260506154526 72 252 5.0 15.0 0.00 0.00 0.00 58 1008.7
20260506153024 73 274 4.0 13.0 0.00 0.00 0.00 57 1008.9
20260506151533 72 241 6.0 16.0 0.00 0.00 0.00 58 1008.9
20260506150030 72 198 6.0 14.0 0.00 0.00 0.00 59 1009.1
20260506144527 71 197 6.0 11.0 0.00 0.00 0.00 61 1008.9
20260506143024 70 207 6.0 18.0 0.00 0.00 0.00 62 1009.0
20260506141530 70 155 6.0 14.0 0.00 0.00 0.00 63 1008.8
20260506140028 69 240 4.0 15.0 0.00 0.00 0.00 66 1009.0
20260506134530 67 157 6.0 13.0 0.00 0.00 0.00 68 1009.0
20260506133021 66 270 5.0 14.0 0.00 0.00 0.00 70 1009.6
20260506131526 66 174 7.0 17.0 0.00 0.00 0.00 70 1009.8
20260506130030 65 203 2.0 9.0 0.00 0.00 0.00 71 1009.6
20260506124513 64 166 5.0 12.0 0.00 0.00 0.00 72 1009.8
20260506123006 64 225 5.0 11.0 0.00 0.00 0.00 73 1010.1
20260506121508 63 142 4.0 15.0 0.00 0.00 0.00 73 1009.9
20260506120020 62 153 2.0 11.0 0.00 0.00 0.00 73 1010.2
20260506114510 61 191 4.0 11.0 0.00 0.00 0.00 72 1010.1
20260506113017 61 235 1.0 13.0 0.00 0.00 0.00 71 1010.5
20260506111504 61 229 3.0 13.0 0.00 0.00 0.00 71 1010.3
20260506110006 61 239 3.0 13.0 0.00 0.00 0.00 71 1010.2
20260506104513 60 158 2.0 9.0 0.00 0.00 0.00 70 1010.2
20260506103034 60 234 3.0 7.0 0.00 0.00 0.00 70 1010.3
20260506101519 60 157 3.0 10.0 0.00 0.00 0.00 70 1010.3
20260506100005 60 202 6.0 12.0 0.00 0.00 0.00 71 1010.3
20260506094503 60 215 3.0 11.0 0.00 0.00 0.00 71 1010.0
20260506093018 60 182 3.0 7.0 0.00 0.00 0.00 71 1010.2
20260506091519 60 250 2.0 7.0 0.00 0.00 0.00 72 1010.0
20260506090020 61 155 2.0 10.0 0.00 0.00 0.00 72 1010.1
20260506084506 61 250 3.0 11.0 0.00 0.00 0.00 73 1010.1
20260506083010 61 202 3.0 13.0 0.00 0.00 0.00 73 1010.2
20260506081518 62 221 3.0 13.0 0.00 0.00 0.00 73 1010.0
20260506073007 62 219 5.0 17.0 0.00 0.00 0.00 72 1010.0
20260506071516 63 249 6.0 14.0 0.00 0.00 0.00 72 1009.8
20260506061507 63 209 4.0 13.0 0.00 0.00 0.00 69 1009.7